Location: New Paltz
(41.7500°N, 74.0833°W)
Time: 12:01:13
(UTC-04:00)

Daily predictions for brighter satellites

Satellite Brightness Start Highest point End
(mag) Time Altitude Azimuth Time Altitude Azimuth Time Altitude Azimuth
Cosmos 2297 Rocket 2.3 19:52:57 10° NNW 19:58:39 87° WSW 20:04:19 10° SSE
CZ-2D R/B 3.9 19:57:17 10° SE 20:00:53 38° ENE 20:04:32 10° N
Cosmos 2082 4.3 19:56:51 10° NNW 20:02:24 62° WSW 20:07:56 10° S
Resurs 01 Rocket 1.9 19:59:08 10° S 20:03:33 73° WSW 20:08:01 10° NNW
Cosmos 1763 Rocket 4.5 20:00:45 10° SSE 20:04:43 23° E 20:08:41 10° NE
Cosmos 1975 2.9 20:01:28 10° S 20:05:29 57° E 20:09:31 10° NNE
Lacrosse 5 rocket 3.1 20:02:39 10° WNW 20:05:44 24° SW 20:08:43 10° S
FengYun 1-2 T 4.3 20:02:23 10° SSE 20:08:00 84° ENE 20:13:37 10° NNW
Cosmos 2150 Rocket 4.0 20:06:54 10° NNW 20:12:02 64° ENE 20:17:10 10° SSE
Cosmos 1515 3.8 20:11:20 10° N 20:15:08 56° E 20:18:53 10° SSE
Cosmos 2084 4.0 20:15:21 10° NW 20:19:20 55° WSW 20:23:33 10° SSE
Cosmos 1898 Rocket 3.5 20:14:09 10° NNW 20:19:28 79° ENE 20:24:42 10° SSE
Cosmos 1825 Rocket 4.5 20:17:09 10° NNE 20:21:01 29° ENE 20:24:23 12° SE
Cosmos 468 Rocket 3.9 20:21:59 10° SSW 20:27:06 81° ESE 20:32:15 10° NNE
Cosmos 841 Rocket 4.0 20:25:59 10° SSE 20:30:44 36° ESE 20:35:29 10° NE
Cosmos 1697 Rocket 2.7 20:25:28 10° SSW 20:31:07 90° W 20:36:48 10° NNE
Cosmos 1953 Rocket 4.5 20:30:01 10° NNE 20:33:58 30° ENE 20:36:27 18° SE
Cosmos 2173 Rocket 4.2 20:29:55 10° SSE 20:36:03 53° E 20:42:09 10° NNE
H-2A R/B 3.6 20:35:01 16° E 20:36:18 18° ENE 20:39:08 10° NNE
Cosmos 1743 3.0 20:33:18 10° SSE 20:37:02 45° E 20:40:47 10° NNE
Cosmos 1626 Rocket 4.2 20:33:40 10° NNW 20:37:58 57° W 20:42:13 10° S
Cosmos 1066 Rocket 4.2 20:35:21 10° N 20:41:06 84° E 20:46:56 10° S
Cosmos 1814 Rocket 4.0 20:36:49 10° SSW 20:42:09 88° WNW 20:47:29 10° NNE
CZ-4B DEB 4.4 20:39:25 10° SSW 20:42:28 36° W 20:45:33 10° NNW
Lacrosse 5 2.5 20:41:58 10° NW 20:46:53 52° SW 20:50:59 14° SSE
SL-16 R/B 3.0 20:42:30 10° SSE 20:47:10 27° ESE 20:51:50 10° NE
Cosmos 1939 Rocket 3.6 20:46:28 24° ESE 20:48:24 38° ENE 20:52:16 10° N
SJ-11-01 4.4 20:45:46 17° SE 20:49:11 55° ENE 20:53:45 10° N
Cosmos 1758 Rocket 4.1 20:48:03 10° N 20:52:08 38° ENE 20:53:45 27° ESE
Iridium 4 Rocket 3.7 20:49:54 10° N 20:54:42 63° W 20:59:05 10° S
USA 186 2.6 20:52:39 10° S 20:55:28 42° W 20:58:07 10° NNW
Cosmos 1980 Rocket 2.2 20:50:22 10° SSW 20:56:02 88° ESE 21:01:47 10° NNE
Cosmos 2100 Rocket 3.9 20:49:55 10° S 20:56:11 83° E 21:02:25 10° N
SPOT 5 3.8 20:57:22 25° E 20:58:46 30° ENE 21:02:51 10° N
YAOGAN 11 4.1 20:58:11 21° SSE 21:01:08 73° ENE 21:05:33 10° N
ALOS 3.7 20:59:39 10° SSW 21:03:58 37° W 21:08:20 10° NNW
H-2A R/B 4.4 21:03:45 10° SSW 21:07:19 34° W 21:10:58 10° NNW
YAOGAN 6 4.1 21:08:22 22° ENE 21:08:22 22° ENE 21:10:52 10° NNE
deb Chang Zheng 4 4.1 21:06:05 10° NNE 21:10:15 38° E 21:10:32 38° ESE
Tsikada Rocket 4.4 21:04:38 10° N 21:10:49 47° ENE 21:13:33 30° SE
RESURS DK-1 4.0 21:10:41 10° NW 21:14:20 31° WSW 21:17:35 12° SSW
Cosmos 1666 2.6 21:13:59 53° SE 21:14:25 57° E 21:18:09 10° NNE
Envisat 2.9 21:12:39 30° SSE 21:15:10 71° ENE 21:20:14 10° N
CZ-4 DEB 2.9 21:14:51 46° SSW 21:15:36 67° WSW 21:18:45 10° NNW
Cosmos 2061 Rocket 4.1 21:09:26 10° S 21:15:44 78° W 21:22:00 10° N
Cosmos 1459 Rocket 4.1 21:10:44 10° SSW 21:16:45 74° W 21:22:55 10° N
OAO 2 Rocket 4.4 21:12:33 10° WSW 21:16:49 29° SSW 21:17:57 26° S
Cosmos 1842 3.2 21:14:31 10° N 21:18:23 60° E 21:18:45 57° ESE
Cosmos 2263 Rocket 3.0 21:14:06 10° N 21:19:05 32° ENE 21:20:21 29° E
Tiangong 1 3.0 21:18:56 10° W 21:21:05 21° SW 21:21:05 21° SW
Cosmos 1606 Rocket 3.7 21:17:21 10° SSW 21:21:45 76° W 21:26:13 10° N
Cosmos 2058 Rocket 3.0 21:22:10 35° S 21:23:59 72° E 21:28:30 10° NNE
Cosmos 1725 Rocket 3.9 21:23:02 23° SSE 21:27:00 64° E 21:33:12 10° NNE
Cosmos 1340 3.6 21:25:55 10° NNW 21:29:34 45° W 21:31:12 27° SSW
Cosmos 2322 Rocket 2.0 21:25:57 10° SSW 21:31:29 68° ESE 21:37:05 10° NNE
ERS-1 Rocket 3.3 21:29:00 24° S 21:31:58 63° WSW 21:36:58 10° NNW
MetOp-A 4.2 21:31:13 46° ESE 21:32:27 59° ENE 21:37:43 10° N
Cosmos 1726 Rocket 4.3 21:40:10 15° SSW 21:43:38 51° W 21:47:57 10° N
Meteor 2-9 Rocket 4.1 21:42:27 21° SSW 21:46:13 79° W 21:51:37 10° N
Cosmos 2233 Rocket 4.0 21:46:05 52° SE 21:47:01 57° E 21:53:07 10° NNE
SL-19 R/B 4.5 21:43:56 10° NNE 21:48:20 46° ENE 21:48:20 46° ENE
H-2A R/B 3.3 21:54:29 26° NE 21:54:29 26° NE 21:57:40 10° N
Cosmos 783 Rocket 4.3 21:54:20 73° SSE 21:54:43 78° ESE 22:00:01 10° NNE
USA 215 4.4 21:52:31 22° ENE 21:55:42 33° NNE 22:01:24 10° NW
Meteor 2-5 Rocket 4.0 21:51:39 10° N 21:57:20 50° ENE 21:57:20 50° ENE
Meteor 1-15 Rocket 4.5 21:56:10 23° SSW 21:59:55 71° W 22:05:47 10° N
BREEZE-M DEB (TANK) 3.2 21:57:38 10° WNW 21:59:21 42° W 21:59:21 42° W
ASTEX 1 3.8 21:58:57 10° N 22:03:53 60° W 22:05:15 43° SW
Cosmos 405 Rocket 4.1 22:02:22 10° N 22:04:31 33° N 22:04:31 33° N
Cosmos 1125 Rocket 4.0 22:02:40 10° NNW 22:07:44 52° WSW 22:08:30 48° SW
Cosmos 2228 3.7 22:08:23 51° W 22:08:23 51° W 22:12:34 10° N
H-2A R/B 3.1 22:12:09 38° W 22:12:09 38° W 22:15:56 10° NNW
Cosmos 540 Rocket 3.6 22:12:08 58° WSW 22:12:55 68° WNW 22:18:04 10° NNE
SPOT 1/Viking Rocket 3.5 22:13:18 81° N 22:13:18 81° N 22:18:15 10° NNW
Cosmos 2278 Rocket 4.4 22:12:34 10° NNE 22:14:47 12° NE 22:15:11 12° NE
Cosmos 332 Rocket 4.4 22:17:02 48° WSW 22:17:53 55° WNW 22:22:43 10° N
Cosmos 371 Rocket 4.1 22:20:55 45° N 22:20:55 45° N 22:24:18 10° NNE
ARGOS 3.1 22:20:24 80° NNW 22:20:24 80° NNW 22:25:31 10° NNW
NOAA 11 4.3 22:29:45 70° WNW 22:29:45 70° WNW 22:34:54 10° NNW
Cosmos 1844 Rocket 4.1 22:24:52 10° N 22:28:41 26° NE 22:28:41 26° NE
SL-16 R/B 3.2 22:25:37 10° SW 22:31:00 44° WNW 22:36:26 10° NNE
SPOT 5 4.3 22:36:37 30° W 22:36:45 30° W 22:40:57 10° NW
Cosmos 1464 Rocket 4.4 22:39:00 52° NE 22:39:00 52° NE 22:43:55 10° NNE
Cosmos 2360 Rocket 3.1 22:42:34 39° NNE 22:42:34 39° NNE 22:46:05 10° NNE
Terra 3.3 22:47:04 32° N 22:47:04 32° N 22:49:42 10° N
Cosmos 2263 Rocket 3.4 22:57:58 10° NW 23:02:03 34° W 23:02:03 34° W
H-2A R/B 4.0 23:35:08 23° NW 23:35:08 23° NW 23:37:18 10° NNW
USA 215 3.8 23:39:52 54° NW 23:39:52 54° NW 23:44:45 10° NW
COSMOS 2428 4.4 23:54:28 28° N 23:54:28 28° N 23:57:14 10° NNE
